TimeEDT,TemperatureF,Dew PointF,Humidity,Sea Level PressureIn,VisibilityMPH,Wind Direction,Wind SpeedMPH,Gust SpeedMPH,PrecipitationIn,Events,Conditions,WindDirDegrees,DateUTC
12:15 AM,60.8,51.8,72,30.09,10.0,NNW,8.1,-,N/A,,Scattered Clouds,330,2011-10-05 04:15:00
12:35 AM,60.8,51.8,72,30.09,10.0,NNW,6.9,-,N/A,,Clear,330,2011-10-05 04:35:00
12:55 AM,60.8,51.8,72,30.10,10.0,NNW,8.1,-,N/A,,Clear,330,2011-10-05 04:55:00
1:15 AM,60.8,51.8,72,30.10,10.0,NNW,6.9,-,N/A,,Mostly Cloudy,330,2011-10-05 05:15:00
1:35 AM,60.8,51.8,72,30.10,10.0,NW,6.9,-,N/A,,Partly Cloudy,320,2011-10-05 05:35:00
1:55 AM,60.8,51.8,72,30.11,10.0,NW,8.1,-,N/A,,Clear,310,2011-10-05 05:55:00
2:15 AM,59.0,51.8,77,30.11,10.0,NW,4.6,-,N/A,,Clear,320,2011-10-05 06:15:00
2:35 AM,59.0,51.8,77,30.11,10.0,NW,6.9,-,N/A,,Clear,320,2011-10-05 06:35:00
2:55 AM,59.0,51.8,77,30.11,10.0,NW,6.9,-,N/A,,Clear,310,2011-10-05 06:55:00
3:15 AM,59.0,51.8,77,30.10,10.0,WNW,6.9,-,N/A,,Clear,300,2011-10-05 07:15:00
3:35 AM,59.0,51.8,77,30.10,10.0,NW,6.9,-,N/A,,Clear,310,2011-10-05 07:35:00
3:55 AM,60.8,51.8,72,30.11,10.0,NW,6.9,-,N/A,,Clear,310,2011-10-05 07:55:00
4:15 AM,60.8,51.8,72,30.11,10.0,NW,5.8,-,N/A,,Clear,310,2011-10-05 08:15:00
4:35 AM,60.8,51.8,72,30.11,10.0,WNW,8.1,-,N/A,,Clear,300,2011-10-05 08:35:00
4:55 AM,60.8,51.8,72,30.12,10.0,NW,10.4,17.3,N/A,,Clear,310,2011-10-05 08:55:00
5:15 AM,60.8,51.8,72,30.12,10.0,NW,11.5,16.1,N/A,,Clear,320,2011-10-05 09:15:00
5:55 AM,60.8,51.8,72,30.12,10.0,NW,10.4,-,N/A,,Clear,310,2011-10-05 09:55:00
6:15 AM,60.8,51.8,72,30.13,10.0,NW,8.1,-,N/A,,Clear,310,2011-10-05 10:15:00
6:35 AM,60.8,51.8,72,30.13,10.0,NW,9.2,-,N/A,,Clear,320,2011-10-05 10:35:00
6:55 AM,60.8,51.8,72,30.13,10.0,NW,10.4,16.1,N/A,,Clear,310,2011-10-05 10:55:00
7:15 AM,60.8,51.8,72,30.13,10.0,NW,10.4,-,N/A,,Clear,320,2011-10-05 11:15:00
7:35 AM,60.8,51.8,72,30.14,10.0,NW,9.2,16.1,N/A,,Clear,320,2011-10-05 11:35:00
7:55 AM,60.8,51.8,72,30.14,10.0,NW,10.4,-,N/A,,Clear,310,2011-10-05 11:55:00
8:15 AM,60.8,51.8,72,30.15,10.0,NW,10.4,-,N/A,,Clear,310,2011-10-05 12:15:00
8:35 AM,60.8,51.8,72,30.15,10.0,NW,6.9,16.1,N/A,,Clear,310,2011-10-05 12:35:00
9:15 AM,62.6,51.8,68,30.16,10.0,WNW,9.2,20.7,N/A,,Clear,300,2011-10-05 13:15:00
9:35 AM,62.6,51.8,68,30.16,10.0,WNW,9.2,16.1,N/A,,Clear,290,2011-10-05 13:35:00
10:15 AM,62.6,51.8,68,30.15,10.0,WNW,11.5,18.4,N/A,,Clear,300,2011-10-05 14:15:00
10:35 AM,64.4,51.8,64,30.15,10.0,WNW,10.4,17.3,N/A,,Clear,290,2011-10-05 14:35:00
10:55 AM,64.4,51.8,64,30.15,10.0,WNW,11.5,17.3,N/A,,Clear,290,2011-10-05 14:55:00
11:35 AM,64.4,51.8,64,30.15,10.0,WNW,12.7,20.7,N/A,,Clear,290,2011-10-05 15:35:00
11:55 AM,64.4,51.8,64,30.15,10.0,WNW,11.5,19.6,N/A,,Clear,300,2011-10-05 15:55:00
12:15 PM,66.2,51.8,60,30.15,10.0,WNW,16.1,19.6,N/A,,Clear,290,2011-10-05 16:15:00
12:35 PM,66.2,51.8,60,30.15,10.0,WNW,13.8,20.7,N/A,,Clear,290,2011-10-05 16:35:00
12:55 PM,66.2,51.8,60,30.14,10.0,WNW,15.0,18.4,N/A,,Clear,290,2011-10-05 16:55:00
1:15 PM,66.2,51.8,60,30.13,10.0,WNW,13.8,20.7,N/A,,Clear,290,2011-10-05 17:15:00
1:35 PM,68.0,53.6,60,30.12,10.0,West,12.7,16.1,N/A,,Clear,280,2011-10-05 17:35:00
1:55 PM,68.0,53.6,60,30.12,10.0,West,15.0,23.0,N/A,,Clear,280,2011-10-05 17:55:00
2:15 PM,69.8,53.6,56,30.11,10.0,WNW,11.5,18.4,N/A,,Clear,290,2011-10-05 18:15:00
2:35 PM,69.8,53.6,56,30.10,10.0,WNW,12.7,18.4,N/A,,Clear,290,2011-10-05 18:35:00
2:55 PM,69.8,53.6,56,30.10,10.0,WNW,10.4,19.6,N/A,,Clear,290,2011-10-05 18:55:00
3:35 PM,69.8,51.8,53,30.09,10.0,WNW,9.2,16.1,N/A,,Clear,300,2011-10-05 19:35:00
3:55 PM,69.8,51.8,53,30.09,10.0,WNW,10.4,16.1,N/A,,Clear,300,2011-10-05 19:55:00
4:15 PM,69.8,50.0,49,30.09,10.0,WNW,10.4,18.4,N/A,,Clear,290,2011-10-05 20:15:00
4:35 PM,69.8,51.8,53,30.09,10.0,WNW,8.1,17.3,N/A,,Clear,290,2011-10-05 20:35:00
4:55 PM,69.8,51.8,53,30.10,10.0,WNW,9.2,17.3,N/A,,Clear,300,2011-10-05 20:55:00
5:15 PM,69.8,51.8,53,30.10,10.0,WNW,9.2,-,N/A,,Clear,290,2011-10-05 21:15:00
5:55 PM,68.0,51.8,56,30.11,10.0,WNW,9.2,-,N/A,,Clear,300,2011-10-05 21:55:00
6:15 PM,68.0,53.6,60,30.11,10.0,WNW,8.1,-,N/A,,Clear,300,2011-10-05 22:15:00
6:35 PM,66.2,53.6,64,30.13,10.0,WNW,5.8,-,N/A,,Clear,300,2011-10-05 22:35:00
6:55 PM,66.2,53.6,64,30.13,10.0,NW,5.8,-,N/A,,Clear,320,2011-10-05 22:55:00
7:15 PM,66.2,53.6,64,30.13,10.0,NW,5.8,-,N/A,,Clear,310,2011-10-05 23:15:00
7:35 PM,66.2,51.8,60,30.14,10.0,NW,4.6,-,N/A,,Clear,310,2011-10-05 23:35:00
7:55 PM,66.2,51.8,60,30.15,10.0,WNW,5.8,-,N/A,,Clear,300,2011-10-05 23:55:00
8:15 PM,64.4,51.8,64,30.16,10.0,WNW,3.5,-,N/A,,Clear,300,2011-10-06 00:15:00
8:35 PM,64.4,51.8,64,30.17,10.0,NW,4.6,-,N/A,,Clear,320,2011-10-06 00:35:00
8:55 PM,64.4,51.8,64,30.18,10.0,NNW,5.8,-,N/A,,Clear,340,2011-10-06 00:55:00
9:15 PM,64.4,51.8,64,30.19,10.0,NNW,4.6,-,N/A,,Clear,340,2011-10-06 01:15:00
9:35 PM,62.6,50.0,63,30.20,10.0,North,4.6,-,N/A,,Clear,350,2011-10-06 01:35:00
10:15 PM,62.6,48.2,59,30.21,10.0,North,9.2,-,N/A,,Clear,360,2011-10-06 02:15:00
10:35 PM,60.8,46.4,59,30.22,10.0,North,9.2,-,N/A,,Clear,360,2011-10-06 02:35:00
10:55 PM,60.8,46.4,59,30.22,10.0,North,11.5,-,N/A,,Clear,360,2011-10-06 02:55:00
11:15 PM,60.8,44.6,55,30.24,10.0,North,10.4,-,N/A,,Clear,360,2011-10-06 03:15:00
11:35 PM,59.0,44.6,59,30.25,10.0,North,9.2,-,N/A,,Clear,360,2011-10-06 03:35:00
11:55 PM,57.2,44.6,63,30.25,10.0,North,11.5,17.3,N/A,,Clear,10,2011-10-06 03:55:00